Dati Storici

Data ora Umidita' aria (%) Temperatura aria (°C) Rad globale (W/m²) Gonioanemometro (°) Tacoanemometro (m/s) Pioggia (mm)
06-11-2012 15:30 52.6 % 16.694 286.298 147.622 1.683 0
06-11-2012 15:20 52.8 % 17.112 307.691 34.48 0.61 0
06-11-2012 15:10 52.8 % 16.654 330.645 47.094 1.013 0
06-11-2012 15:00 53.2 % 17.142 342.313 201.598 0.575 0
06-11-2012 14:50 53.1 % 16.896 358.853 319.996 1.618 0
06-11-2012 14:40 53.6 % 16.365 376.969 228.801 0.73 0
06-11-2012 14:30 52.8 % 16.722 396.434 2.441 0.492 0
06-11-2012 14:20 52.8 % 16.247 412.159 242.026 0.94 0
06-11-2012 14:10 52.6 % 16.729 426.4 242.397 0.775 0
06-11-2012 14:00 52 % 16.367 439.636 290.754 1.45 0
06-11-2012 13:50 50.7 % 16.307 452.564 307.015 0.804 0
06-11-2012 13:40 50.4 % 16.488 460.432 245.815 0.609 0
06-11-2012 13:30 49.4 % 16.766 469.142 358.067 1.173 0
06-11-2012 13:20 49.3 % 16.583 476.991 336.308 2.108 0
06-11-2012 13:10 49.1 % 16.494 475.665 302.883 0.988 0
06-11-2012 13:00 48.9 % 16.207 476.991 344.154 0.641 0
06-11-2012 12:50 48.8 % 16.005 479.455 282.419 0.567 0
06-11-2012 12:40 48 % 15.636 484.895 24.498 1.365 0
06-11-2012 12:30 48.7 % 15.28 486.088 209.187 0.613 0
06-11-2012 12:20 48.2 % 15.388 484.153 329.45 1.888 0

I dati sono presentati in modo automatico a scopo informativo. In seguito a verifica i dati possono subire modifiche o essere invalidati e non riportati negli archivi definitivi.